Location: Peterborough
(44.3091°N, 78.3197°W)
Time: 19:39:49
(UTC-04:00)

Vanguard 2 Rocket - Pass Details

Date: 26 March 2023
Orbit: 554 x 3314 km, 32.9° (Epoch: 06 June)

Event Time Altitude Azimuth Distance (km) Brightness Sun altitude
Rises 21:37:47 0° 246° (WSW) 3,726 10.6 -22.2°
Reaches altitude 10° 21:40:06 10° 239° (WSW) 3,034 9.9 -22.5°
Maximum altitude 21:47:18 43° 170° (S) 2,165 8.4 -23.7°
Enters shadow 21:50:38 35° 134° (SE) 2,707 8.7 -24.2°
